User: anonymous   Login
Location: Unspecified
(0.0000°N, 0.0000°E)
Time: 22:04:12
(UTC+00:00)
Language:

Kosmos-2004 - Orbit

View from above orbital plane
View from above orbital plane
View from above satellite
View from above satellite

Ground track
Ground track

The orbit data is extracted from the following two-line orbital elements,

1 19826U 89017A   24110.52502006  .00000143  00000-0  13973-3 0  9993
2 19826  82.9507 144.3153 0028683 281.9183 193.3984 13.72424352760529
Epoch (UTC): 19 April 2024 12:36:01
Eccentricity: 0.0028683
inclination: 82.9507°
perigee height: 970 km
apogee height: 1012 km
right ascension of ascending node: 144.3153°
argument of perigee: 281.9183°
revolutions per day: 13.72424352
mean anomaly at epoch: 193.3984°
orbit number at epoch: 76052

The dashed part of the orbit path shows where the satellite is in the earth's shadow,  

DLR